NATO215 ETAR-ETAR

Flight info

Callsign NATO215
Flight time 0h 14m
Altitude 3000
Route VFR STAY1/0100
Aircraft C17/H-SDE1E2FGHIJ5RTUWXY/LB1D1

Departure

Time 2026-05-01 12:20
Airport Ramstein Air Base (ETAR)

Arrival

Time 2026-05-01 12:35
Airport Ramstein Air Base (ETAR)
Time Latitude Longitude Altitude Speed Heading
2026-05-01 11:51 49.44147 7.59487 781 ft 0 kts 266°
2026-05-01 12:11 49.44147 7.59484 781 ft 2 kts 266°
2026-05-01 12:11 49.44145 7.59445 781 ft 7 kts 266°
2026-05-01 12:12 49.44117 7.59389 780 ft 8 kts 192°
2026-05-01 12:12 49.44075 7.59362 780 ft 6 kts 242°
2026-05-01 12:12 49.44064 7.59227 780 ft 18 kts 266°
2026-05-01 12:12 49.44057 7.59029 779 ft 21 kts 266°
2026-05-01 12:13 49.44047 7.58769 778 ft 28 kts 267°
2026-05-01 12:13 49.44037 7.58481 777 ft 26 kts 266°
2026-05-01 12:13 49.44018 7.58289 776 ft 10 kts 224°
2026-05-01 12:13 49.43949 7.58273 776 ft 11 kts 176°
2026-05-01 12:14 49.43861 7.58332 776 ft 15 kts 143°
2026-05-01 12:14 49.43742 7.58368 776 ft 20 kts 175°
2026-05-01 12:14 49.43590 7.58384 776 ft 24 kts 176°
2026-05-01 12:14 49.43430 7.58399 774 ft 22 kts 177°
2026-05-01 12:15 49.43314 7.58430 772 ft 8 kts 127°
2026-05-01 12:15 49.43310 7.58493 772 ft 0 kts 82°
2026-05-01 12:15 49.43317 7.58574 772 ft 35 kts 82°
2026-05-01 12:15 49.43385 7.59337 780 ft 108 kts 82°
2026-05-01 12:16 49.43478 7.60417 780 ft 52 kts 82°
2026-05-01 12:16 49.43490 7.60564 781 ft 2 kts 82°
2026-05-01 12:16 49.43504 7.60705 782 ft 25 kts 82°
2026-05-01 12:16 49.43536 7.61075 785 ft 44 kts 82°
2026-05-01 12:17 49.43576 7.61526 786 ft 37 kts 82°
2026-05-01 12:17 49.43647 7.61687 788 ft 11 kts 358°
2026-05-01 12:17 49.43719 7.61674 792 ft 13 kts 340°
2026-05-01 12:17 49.43752 7.61479 790 ft 28 kts 266°
2026-05-01 12:18 49.43736 7.61109 788 ft 41 kts 266°
2026-05-01 12:18 49.43716 7.60595 787 ft 56 kts 266°
2026-05-01 12:18 49.43688 7.59961 783 ft 62 kts 266°
2026-05-01 12:18 49.43661 7.59276 781 ft 66 kts 265°
2026-05-01 12:19 49.43633 7.58649 777 ft 45 kts 266°
2026-05-01 12:19 49.43585 7.58388 776 ft 13 kts 191°
2026-05-01 12:19 49.43462 7.58397 775 ft 21 kts 176°
2026-05-01 12:19 49.43315 7.58447 772 ft 15 kts 122°
2026-05-01 12:20 49.43317 7.58588 773 ft 28 kts 82°
2026-05-01 12:20 49.43375 7.59263 780 ft 100 kts 82°
2026-05-01 12:20 49.43499 7.60667 792 ft 160 kts 83°
2026-05-01 12:20 49.43647 7.62444 1438 ft 175 kts 84°
2026-05-01 12:21 49.43574 7.64287 2407 ft 182 kts 115°
2026-05-01 12:21 49.42424 7.65384 2680 ft 224 kts 173°
2026-05-01 12:21 49.40938 7.64372 2763 ft 261 kts 230°
2026-05-01 12:21 49.40552 7.61614 2913 ft 275 kts 269°
2026-05-01 12:22 49.40559 7.58694 3044 ft 269 kts 269°
2026-05-01 12:22 49.40482 7.55933 3049 ft 252 kts 260°
2026-05-01 12:22 49.40204 7.53308 2854 ft 247 kts 263°
2026-05-01 12:22 49.40692 7.50979 2760 ft 229 kts 322°
2026-05-01 12:23 49.42123 7.50595 2625 ft 206 kts 26°
2026-05-01 12:23 49.42906 7.52169 2218 ft 187 kts 86°
2026-05-01 12:23 49.42932 7.54152 1555 ft 181 kts 86°
2026-05-01 12:23 49.43083 7.55907 1161 ft 148 kts 83°
2026-05-01 12:24 49.43205 7.57316 891 ft 122 kts 83°
2026-05-01 12:24 49.43317 7.58593 782 ft 115 kts 83°
2026-05-01 12:24 49.43426 7.59835 851 ft 132 kts 82°
2026-05-01 12:24 49.43560 7.61316 1452 ft 150 kts 84°
2026-05-01 12:25 49.43535 7.63005 2227 ft 171 kts 115°
2026-05-01 12:25 49.40890 7.63954 2839 ft 251 kts 201°
2026-05-01 12:25 49.39722 7.61922 2927 ft 278 kts 252°
2026-05-01 12:26 49.39655 7.58831 3014 ft 300 kts 269°
2026-05-01 12:26 49.39857 7.52586 3585 ft 292 kts 269°
2026-05-01 12:26 49.39918 7.49470 3631 ft 283 kts 272°
2026-05-01 12:27 49.40658 7.46820 3551 ft 271 kts 321°
2026-05-01 12:27 49.43105 7.47672 3426 ft 233 kts 76°
2026-05-01 12:28 49.42835 7.52168 3396 ft 198 kts 89°
2026-05-01 12:28 49.42927 7.54136 2755 ft 173 kts 84°
2026-05-01 12:28 49.43195 7.57264 1109 ft 133 kts 81°
2026-05-01 12:29 49.43317 7.58585 777 ft 111 kts 83°
2026-05-01 12:29 49.43419 7.59772 787 ft 130 kts 83°
2026-05-01 12:29 49.43642 7.62924 2066 ft 168 kts 89°
2026-05-01 12:30 49.42072 7.64950 2912 ft 204 kts 193°
2026-05-01 12:30 49.40875 7.63663 3164 ft 224 kts 228°
2026-05-01 12:30 49.40288 7.61424 3423 ft 233 kts 266°
2026-05-01 12:31 49.40410 7.58948 3786 ft 222 kts 275°
2026-05-01 12:31 49.40609 7.56706 3910 ft 220 kts 277°
2026-05-01 12:31 49.40879 7.54244 3558 ft 241 kts 270°
2026-05-01 12:31 49.40600 7.51788 3577 ft 221 kts 252°
2026-05-01 12:32 49.40222 7.49683 3571 ft 193 kts 253°
2026-05-01 12:32 49.40215 7.46021 3434 ft 165 kts 306°
2026-05-01 12:32 49.41201 7.45182 3412 ft 173 kts 359°
2026-05-01 12:33 49.42316 7.45925 3287 ft 190 kts 58°
2026-05-01 12:33 49.42547 7.48019 2987 ft 210 kts 94°
2026-05-01 12:33 49.42563 7.50256 2563 ft 195 kts 87°
2026-05-01 12:33 49.42754 7.52032 2040 ft 155 kts 84°
2026-05-01 12:34 49.42888 7.53551 1618 ft 134 kts 85°
2026-05-01 12:34 49.42981 7.54921 1284 ft 126 kts 84°
2026-05-01 12:34 49.43105 7.56216 1024 ft 124 kts 84°
2026-05-01 12:34 49.43224 7.57544 843 ft 123 kts 84°
2026-05-01 12:35 49.43334 7.58796 776 ft 108 kts 84°
2026-05-01 12:35 49.43414 7.59666 781 ft 49 kts 82°
2026-05-01 12:35 49.43442 7.59990 778 ft 22 kts 75°
2026-05-01 12:35 49.43522 7.60054 780 ft 11 kts 335°
2026-05-01 12:36 49.43583 7.60003 783 ft 10 kts 331°
2026-05-01 12:36 49.43652 7.59944 783 ft 19 kts 330°
2026-05-01 12:36 49.43774 7.59829 783 ft 24 kts 328°
2026-05-01 12:36 49.43944 7.59662 782 ft 31 kts 328°
2026-05-01 12:37 49.44081 7.59621 781 ft 17 kts 357°
2026-05-01 12:37 49.44148 7.59570 781 ft 8 kts 281°
2026-05-01 12:37 49.44148 7.59480 781 ft 0 kts 266°